{"data":{"norad_id":46743,"epoch":"2026-08-26T08:45:24.965856Z","epoch_age_seconds":2193722,"freshness":"OLD","line1":"1 46743U 20074E   26238.36487229  .08110531  12259-4  72062-3 0  9991","line2":"2 46743  53.0168 171.1297 0007577 242.8020 117.2253 16.38250305323777","mean_motion":16.38250305,"eccentricity":0.0007577,"inclination_deg":53.0168,"raan_deg":171.1297,"arg_perigee_deg":242.802,"mean_anomaly_deg":117.2253,"bstar":0.00072062,"rev_number":32377,"period_min":87.898655999335,"perigee_km":165.49920569582,"apogee_km":175.42295122392,"semimajor_km":6548.5980784599,"source":"CELESTRAK","updated_at":"2026-08-27T09:00:39.408509Z"}}